THORAD AGENA D DEB, 5067

Orbit data source: Space-Track

THORAD AGENA D DEB, 5067 is space debris in SSO originally from a launch on Wed, 08 Apr 1970 UTC launched from the Air Force Western Test Range (AFWTR). Debris objects in space refer to the collection of defunct objects orbiting the Earth. Examples of debris include non-operational satellites, rocket bodies, and fragments generated from explosions, collisions, or faulty payload assembly.

Loading next visibility...
Identifier
5067, 1970-025JM
Orbit
SSO
Country
Flag of USUS
Related business
Manufacturer
Unknown
Mission
Spacecraft
Bus & Motor
Unknown
Mass
Unknown
Launch date (UTC)
1970-04-08 (56 years ago)
Launch vehicle
Unknown
Launch site
Air Force Western Test Range (AFWTR)
Object type
Payload
Rocket body
Debris
Shape & HBR
Unknown shape, 0.1 m
Radar Cross Section
Small (<0.1 m²)

Expand to show TLE details & history
Last TLE update: 1 day ago

TLE from 1 day ago
0 THORAD AGENA D DEB
1 05067U 70025JM  26256.19918941  .00000257  00000-0  37427-3 0  9995
2 05067  99.9879 153.7808 0007206  28.2046 124.2172 13.65378815797335
Epoch: 2026-09-13T04:46Z
TLE epoch observation values (Epoch: 2026-09-13T04:46:49.965Z)
Latitude
27.09747°
Longitude
-84.98153°
Altitude
1,022.412 km
Speed
7.341 km/s
True Right ascension
22h 35m 41s
True Declination
26° 57' 48"
Sunlit
Object was in full shadow at epoch
Visualization orbit readout
Latitude
Unknown
Longitude
Unknown
Altitude
Unknown
Speed
Unknown
Apparent Right ascension
Unknown
Apparent Declination
Unknown
Sunlit
N/A
Visualization observer readout
Local Sidereal Time
01:14:53
Azimuth
Unknown
Elevation
Unknown
Doppler factor
Unknown
Orbital elements
Apogee altitude
1,018.831 km
Perigee altitude
1,008.178 km
Semi-major axis
7,391.641 km
Eccentricity
0.00072
Inclination
99.9879°
RAAN
153.7808°
Arg. of periapsis
28.2046°
True anomaly
124.28545°
Mean anomaly
124.2172°
Eccentric anomaly
124.25133°
Mean motion
3.41532 °/min
Orbital period
105.41 mins
BSTAR
0.00037427
Loading maneuver chart data...
Computing Atmospheric mass density...

Documentation

Showing up to 5 results
|